Location: Izdebno
(52.6670°N, 16.2170°E)
Time: 04:35:23
(UTC+01:00)

BlueWalker 3 - Pass Details

Date: 04 December 2023
Orbit: 485 x 500 km, 53.2° (Epoch: 29 February)

Event Time Altitude Azimuth Distance (km) Brightness Sun altitude
Exits shadow 04:28:58 15° 142° (SE) 1,400 4.5 -28.9°
Drops below altitude 10° 04:29:45 10° 138° (SE) 1,693 5.1 -28.8°
Enters shadow 05:28:45 -63° 318° (NW) 11,948 8.9 -19.9°
